STARLINK-4763, 53805

Orbit data source: Space-Track

STARLINK-4763, 53805 is a payload satellite owned by SpaceX/Seattle (US) in LEO that was launched on Sun, 11 Sep 2022 UTC via an FALCON 9 launch vehicle from the Air Force Eastern Test Range (AFETR). Payload-class satellites include a variety of spacecraft equipped with specific instruments for various scientific and technological missions. These include communications satellites like Starlink; space stations such as the ISS; scientific satellites like the Hubble; Earth observation satellites from companies like Planet Labs, Umbra, and HawkEye 360; GPS; miniature CubeSats for education and research; and military/defense satellites.

Loading next visibility...
Identifier
53805, 2022-111AJ
Orbit
LEO
Last TLE update
10 hours ago
Origin
Manufacturer
SpaceX/Seattle
Mission
Operational Commercial Communications
Bus & Motor
STARLINK, Unknown motor
Mass
305 kg wet, ~290 kg dry
Launch date (UTC)
2022-09-11 (3 years ago)
Launch vehicle
FALCON 9
Launch site
Air Force Eastern Test Range (AFETR)
Object type
Payload
Rocket body
Debris
Shape & HBR
Box + 1 Pan, 8.86 m
Radar Cross Section
13.562 m², Large (>1 m²)

Expand to show TLE details & history

TLE from 10 hours ago
0 STARLINK-4763
1 53805U 22111AJ  25181.70438535 -.00000093  00000-0  12242-4 0  9998
2 53805  53.2182 300.4547 0001313  85.0245 275.0897 15.08845802155177
Epoch: 2025-06-30T16:54Z
TLE epoch observation values (Epoch: 2025-06-30T16:54:18.894Z)
Latitude
-0.00001°
Longitude
127.86559°
Altitude
540.543 km
Speed
7.593 km/s
True Right ascension
20h 01m 49s
True Declination
0° 00' 00"
Sunlit
Object was in full shadow at epoch
Visualization orbit readout
Latitude
50.57°
Longitude
-118.72044°
Altitude
544.836 km
Speed
7.596 km/s
Apparent Right ascension
03h 01m 57s
Apparent Declination
7° 44' 43"
Sunlit
Object is in daylight
Visualization observer readout
Local Sidereal Time
14:31:49
Azimuth
349.963° N
Elevation
-41.832°
Doppler factor
1
Orbital elements
Apogee altitude
540.879 km
Perigee altitude
539.062 km
Semi-major axis
6,918.107 km
Eccentricity
0.00013
Inclination
53.2182°
RAAN
300.4547°
Arg. of periapsis
85.0245°
True anomaly
Unknown
Mean anomaly
275.0897°
Eccentric anomaly
Unknown
Mean motion
3.77192 °/min
Orbital period
95.44 mins
BSTAR
0.000012242
Loading maneuver chart data...
Loading SW <> Apogee altitude chart data...
Loading historical data...
Loading historical data...
Loading historical data...
Loading historical data...
Loading historical data...
Loading historical data...
Loading historical data...

STARLINK-4763 Visibility forecast

Observer location: undefined°, undefined°

Span
Click to sort rows by Start time (UTC) header in descending order
Start Az.
Max El. time (UTC)
Max El. Az.
Max El.
End time (UTC)
End Az.
7 mins2025-07-01 10:33:37.216Z223.969° SW2025-07-01 10:37:37.216Z88.662° E43.75°2025-07-01 10:40:37.216Z52.834° ENE
4 mins2025-07-01 12:15:37.216Z306.689° NW2025-07-01 12:16:37.216Z326.63° NNW20.314°2025-07-01 12:19:37.216Z22.42° NNE
4 mins2025-07-01 15:36:37.216Z349.019° N2025-07-01 15:38:37.216Z25.898° NE17.611°2025-07-01 15:40:37.216Z58.963° ENE
6 mins2025-07-01 17:15:37.216Z316.298° NNW2025-07-01 17:18:37.216Z86.307° E42.4°2025-07-01 17:21:37.216Z123.201° SE
|